TimeCET,TemperatureF,Dew PointF,Humidity,Sea Level PressureIn,VisibilityMPH,Wind Direction,Wind SpeedMPH,Gust SpeedMPH,PrecipitationIn,Events,Conditions,WindDirDegrees,DateUTC
12:15 AM,55.4,50.0,82,30.18,6.2,North,2.3,-,N/A,,Scattered Clouds,360,2012-11-24 23:15:00
12:45 AM,53.6,50.0,88,30.18,6.2,NW,1.2,-,N/A,,Scattered Clouds,310,2012-11-24 23:45:00
12:55 AM,53.6,50.0,88,30.18,6.2,NW,1.2,-,N/A,,Scattered Clouds,310,2012-11-24 23:55:00
1:00 AM,54,51,84,30.20,7,NW,1.2,,,,Partly Cloudy,310,2012-11-25 00:00:00
1:15 AM,53.6,50.0,88,30.18,6.2,WNW,2.3,-,N/A,,Scattered Clouds,290,2012-11-25 00:15:00
1:45 AM,51.8,50.0,94,30.18,6.2,WNW,5.8,-,N/A,,Partly Cloudy,290,2012-11-25 00:45:00
1:55 AM,51.8,50.0,94,30.18,6.2,WNW,5.8,-,N/A,,Partly Cloudy,290,2012-11-25 00:55:00
2:15 AM,51.8,50.0,94,30.18,6.2,WNW,4.6,-,N/A,,Partly Cloudy,300,2012-11-25 01:15:00
2:45 AM,50.0,48.2,94,30.18,6.2,WNW,4.6,-,N/A,,Partly Cloudy,300,2012-11-25 01:45:00
2:55 AM,50.0,48.2,94,30.18,6.2,WNW,4.6,-,N/A,,Partly Cloudy,300,2012-11-25 01:55:00
3:15 AM,50.0,48.2,94,30.18,6.2,NW,5.8,-,N/A,,Scattered Clouds,310,2012-11-25 02:15:00
3:45 AM,50.0,48.2,94,30.18,6.2,NW,4.6,-,N/A,,Scattered Clouds,320,2012-11-25 02:45:00
3:55 AM,50.0,48.2,94,30.18,6.2,NW,4.6,-,N/A,,Scattered Clouds,320,2012-11-25 02:55:00
4:00 AM,50,48,90,30.20,6,NW,4.6,,,,Partly Cloudy,320,2012-11-25 03:00:00
4:15 AM,50.0,48.2,94,30.18,6.2,NW,3.5,-,N/A,,Scattered Clouds,320,2012-11-25 03:15:00
4:45 AM,48.2,46.4,93,30.18,6.2,NW,6.9,-,N/A,,Scattered Clouds,320,2012-11-25 03:45:00
4:55 AM,48.2,46.4,93,30.18,6.2,NW,6.9,-,N/A,,Scattered Clouds,320,2012-11-25 03:55:00
5:15 AM,48.2,46.4,93,30.18,6.2,NW,5.8,-,N/A,,Scattered Clouds,320,2012-11-25 04:15:00
5:45 AM,48.2,46.4,93,30.18,6.2,NW,5.8,-,N/A,,Partly Cloudy,320,2012-11-25 04:45:00
5:55 AM,48.2,46.4,93,30.18,6.2,NW,5.8,-,N/A,,Partly Cloudy,320,2012-11-25 04:55:00
6:15 AM,48.2,46.4,93,30.18,6.2,NW,5.8,-,N/A,,Partly Cloudy,320,2012-11-25 05:15:00
6:45 AM,48.2,48.2,100,30.18,6.2,NW,5.8,-,N/A,,Scattered Clouds,320,2012-11-25 05:45:00
6:55 AM,48.2,48.2,100,30.18,6.2,NW,5.8,-,N/A,,Scattered Clouds,320,2012-11-25 05:55:00
7:00 AM,48,47,96,30.20,6,NW,5.8,,,,Partly Cloudy,320,2012-11-25 06:00:00
7:15 AM,48.2,48.2,100,30.18,6.2,NW,5.8,-,N/A,,Scattered Clouds,320,2012-11-25 06:15:00
7:45 AM,48.2,48.2,100,30.18,6.2,NW,4.6,-,N/A,,Scattered Clouds,320,2012-11-25 06:45:00
7:55 AM,48.2,48.2,100,30.18,6.2,NW,4.6,-,N/A,,Scattered Clouds,320,2012-11-25 06:55:00
8:15 AM,50.0,48.2,94,30.18,6.2,NW,4.6,-,N/A,,Scattered Clouds,320,2012-11-25 07:15:00
8:45 AM,50.0,50.0,100,30.18,6.2,NW,4.6,-,N/A,,Partly Cloudy,310,2012-11-25 07:45:00
8:55 AM,50.0,50.0,100,30.18,6.2,NW,4.6,-,N/A,,Partly Cloudy,310,2012-11-25 07:55:00
9:15 AM,51.8,50.0,94,30.18,5.6,NW,3.5,-,N/A,,Partly Cloudy,310,2012-11-25 08:15:00
9:45 AM,53.6,51.8,94,30.21,6.2,WNW,4.6,-,N/A,,Scattered Clouds,300,2012-11-25 08:45:00
9:55 AM,53.6,51.8,94,30.21,6.2,WNW,4.6,-,N/A,,Scattered Clouds,300,2012-11-25 08:55:00
10:00 AM,53,52,95,30.22,6,WNW,4.6,,,,Partly Cloudy,300,2012-11-25 09:00:00
10:15 AM,55.4,53.6,94,30.18,6.2,WNW,2.3,-,N/A,,Partly Cloudy,300,2012-11-25 09:15:00
10:45 AM,59.0,55.4,88,30.18,6.2,WNW,1.2,-,N/A,,Scattered Clouds,290,2012-11-25 09:45:00
10:55 AM,59.0,55.4,88,30.18,6.2,WNW,1.2,-,N/A,,Scattered Clouds,290,2012-11-25 09:55:00
11:15 AM,62.6,59.0,88,30.18,6.2,SE,3.5,-,N/A,,Scattered Clouds,130,2012-11-25 10:15:00
11:45 AM,64.4,55.4,73,30.18,6.2,SE,6.9,-,N/A,,Scattered Clouds,130,2012-11-25 10:45:00
12:15 PM,66.2,55.4,68,30.15,6.2,SSE,8.1,-,N/A,,Partly Cloudy,150,2012-11-25 11:15:00
12:45 PM,66.2,53.6,64,30.15,6.2,South,8.1,-,N/A,,Partly Cloudy,180,2012-11-25 11:45:00
12:55 PM,66.2,53.6,64,30.15,6.2,South,8.1,-,N/A,,Partly Cloudy,180,2012-11-25 11:55:00
1:00 PM,67,54,55,30.18,12,South,8.1,,,,Scattered Clouds,180,2012-11-25 12:00:00
1:15 PM,66.2,51.8,60,30.15,6.2,South,8.1,-,N/A,,Partly Cloudy,170,2012-11-25 12:15:00
1:45 PM,66.2,55.4,68,30.12,6.2,SSE,9.2,-,N/A,,Partly Cloudy,150,2012-11-25 12:45:00
1:55 PM,66.2,55.4,68,30.12,6.2,SSE,9.2,-,N/A,,Partly Cloudy,150,2012-11-25 12:55:00
2:15 PM,66.2,53.6,64,30.12,6.2,SSE,8.1,-,N/A,,Partly Cloudy,150,2012-11-25 13:15:00
2:45 PM,66.2,57.2,73,30.12,6.2,SE,9.2,-,N/A,,Partly Cloudy,140,2012-11-25 13:45:00
2:55 PM,66.2,57.2,73,30.12,6.2,SE,9.2,-,N/A,,Partly Cloudy,140,2012-11-25 13:55:00
3:15 PM,66.2,55.4,68,30.12,6.2,SSE,10.4,-,N/A,,Partly Cloudy,150,2012-11-25 14:15:00
3:45 PM,66.2,53.6,64,30.12,6.2,SE,9.2,-,N/A,,Partly Cloudy,140,2012-11-25 14:45:00
3:55 PM,66.2,53.6,64,30.12,6.2,SE,9.2,-,N/A,,Partly Cloudy,140,2012-11-25 14:55:00
4:00 PM,65,54,58,30.14,12,SE,9.2,,,,Scattered Clouds,140,2012-11-25 15:00:00
4:15 PM,64.4,53.6,68,30.12,6.2,SE,10.4,-,N/A,,Partly Cloudy,140,2012-11-25 15:15:00
4:45 PM,62.6,53.6,72,30.12,6.2,SE,8.1,-,N/A,,Partly Cloudy,140,2012-11-25 15:45:00
4:55 PM,62.6,53.6,72,30.12,6.2,SE,8.1,-,N/A,,Partly Cloudy,140,2012-11-25 15:55:00
5:15 PM,62.6,53.6,72,30.12,6.2,SE,8.1,-,N/A,,Partly Cloudy,140,2012-11-25 16:15:00
5:45 PM,60.8,51.8,72,30.12,6.2,SE,8.1,-,N/A,,Partly Cloudy,140,2012-11-25 16:45:00
5:55 PM,60.8,51.8,72,30.12,6.2,SE,8.1,-,N/A,,Partly Cloudy,140,2012-11-25 16:55:00
6:15 PM,60.8,55.4,82,30.12,6.2,SE,8.1,-,N/A,,Partly Cloudy,140,2012-11-25 17:15:00
6:45 PM,60.8,53.6,77,30.12,6.2,SE,8.1,-,N/A,,Partly Cloudy,140,2012-11-25 17:45:00
6:55 PM,60.8,53.6,77,30.12,6.2,SE,8.1,-,N/A,,Partly Cloudy,140,2012-11-25 17:55:00
7:00 PM,61,53,67,30.15,12,SE,8.1,,,,Scattered Clouds,140,2012-11-25 18:00:00
7:15 PM,60.8,55.4,82,30.12,6.2,SE,8.1,-,N/A,,Partly Cloudy,140,2012-11-25 18:15:00
7:45 PM,60.8,53.6,77,30.15,6.2,SE,8.1,-,N/A,,Partly Cloudy,140,2012-11-25 18:45:00
7:55 PM,60.8,53.6,77,30.15,6.2,SE,8.1,-,N/A,,Partly Cloudy,140,2012-11-25 18:55:00
8:15 PM,59.0,53.6,82,30.15,6.2,ESE,5.8,-,N/A,,Partly Cloudy,120,2012-11-25 19:15:00
8:45 PM,59.0,51.8,77,30.15,6.2,East,3.5,-,N/A,,Partly Cloudy,100,2012-11-25 19:45:00
8:55 PM,59.0,51.8,77,30.15,6.2,East,3.5,-,N/A,,Partly Cloudy,100,2012-11-25 19:55:00
9:15 PM,57.2,50.0,77,30.15,6.2,ENE,4.6,-,N/A,,Partly Cloudy,70,2012-11-25 20:15:00
9:45 PM,55.4,48.2,77,30.15,6.2,ENE,4.6,-,N/A,,Partly Cloudy,70,2012-11-25 20:45:00
9:55 PM,55.4,48.2,77,30.15,6.2,ENE,4.6,-,N/A,,Partly Cloudy,70,2012-11-25 20:55:00
10:00 PM,56,49,70,30.17,9,ENE,4.6,,,,Scattered Clouds,70,2012-11-25 21:00:00
10:15 PM,55.4,48.2,77,30.15,6.2,East,5.8,-,N/A,,Partly Cloudy,80,2012-11-25 21:15:00
10:45 PM,55.4,48.2,77,30.15,6.2,East,4.6,-,N/A,,Partly Cloudy,90,2012-11-25 21:45:00
10:55 PM,55.4,48.2,77,30.15,6.2,East,4.6,-,N/A,,Partly Cloudy,90,2012-11-25 21:55:00
11:15 PM,55.4,48.2,77,30.15,6.2,East,3.5,-,N/A,,Partly Cloudy,90,2012-11-25 22:15:00
11:45 PM,53.6,46.4,77,30.15,6.2,East,2.3,-,N/A,,Partly Cloudy,80,2012-11-25 22:45:00
11:55 PM,53.6,46.4,77,30.15,6.2,East,2.3,-,N/A,,Partly Cloudy,80,2012-11-25 22:55:00